User: anonymous   Login
Location: Joplin, MO
(37.0842°N, 94.5133°W)
Time: 18:56:55
(UTC+02:00)
Language:

Transit 2A - Orbit

View from above orbital plane
View from above orbital plane
View from above satellite
View from above satellite

Ground track
Ground track

The orbit data is extracted from the following two-line orbital elements,

1    45U 60007A   24105.89758669  .00000502  00000-0  15077-3 0  9992
2    45  66.6933 296.6492 0250702  16.3951 344.5072 14.34643237323069
Epoch (UTC): 14 April 2024 21:32:31
Eccentricity: 0.0250702
inclination: 66.6933°
perigee height: 597 km
apogee height: 955 km
right ascension of ascending node: 296.6492°
argument of perigee: 16.3951°
revolutions per day: 14.34643237
mean anomaly at epoch: 344.5072°
orbit number at epoch: 32306

The dashed part of the orbit path shows where the satellite is in the earth's shadow,  

DLR